Burlington, WI

12:21 AM CDT on August 20, 2017 (GMT -0500)
Burlington

Weather History for KBUU - November, 2012

Change the Weather History Date:

Wednesday, November 21, 2012

  Actual Average (KENW) Record (KENW)
Temperature  
Mean Temperature 42 °F -  
Max Temperature 55 °F 42 °F 66 °F (1990)
Min Temperature 30 °F 28 °F 6 °F (1964)
Degree Days  
Heating Degree Days 22    
Moisture  
Dew Point 37 °F    
Average Humidity 89    
Maximum Humidity 100    
Minimum Humidity 62    
Precipitation  
Precipitation 0.00 in - - ()
Sea Level Pressure  
Sea Level Pressure 30.13 in    
Wind  
Wind Speed 4 mph (SSW)    
Max Wind Speed 16 mph    
Max Gust Speed 20 mph    
Visibility 5 miles    
Events Fog    
Averages and records for this station are not official NWS values.
T = Trace of Precipitation, MM = Missing Value Source: NWS Daily Summary

Daily Weather History Graph

Daily Weather History Graph

Search for Another Location

Airport or City:

Trip Planner

Search our weather history database for the weather conditions in past years. The results will help you decide how hot, cold, wet, or windy it might be!

Date:

Astronomy

Nov. 21, 2012 Rise Set
Actual Time 6:52 AM CST 4:25 PM CST
Civil Twilight 6:21 AM CST 4:56 PM CST
Nautical Twilight 5:47 AM CST 5:30 PM CST
Astronomical Twilight 5:13 AM CST 6:04 PM CST
Moon 12:49 PM CST (11/21) 12:03 AM CST (11/21)
Length of Visible Light 10h 34m
Length of Day
9h 32m
First Quarter, 62% of the Moon is Illuminated
Nov 21
First Quarter
Nov 28
Full
Dec 6
Last Quarter
Dec 13
New
Dec 19
First Quarter

Hourly Weather History & Observations

Time (CST) Temp. Windchill Dew Point Humidity Pressure Visibility Wind Dir Wind Speed Gust Speed Precip Events Conditions
12:15 AM 30.2 °F - 30.2 °F 100% 30.16 in 1.0 mi Calm Calm - N/A   Mist
12:35 AM 32.0 °F - 32.0 °F 100% 30.16 in 0.2 mi Calm Calm - N/A Fog Light Freezing Fog
12:55 AM 32.0 °F - 32.0 °F 100% 30.16 in 0.2 mi Calm Calm - N/A Fog Light Freezing Fog
1:15 AM 30.2 °F - 30.2 °F 100% 30.16 in 0.2 mi Calm Calm - N/A Fog Light Freezing Fog
1:35 AM 30.2 °F - 30.2 °F 100% 30.17 in 0.2 mi Calm Calm - N/A Fog Light Freezing Fog
1:55 AM 30.2 °F - 30.2 °F 100% 30.17 in 0.2 mi Calm Calm - N/A Fog Light Freezing Fog
2:15 AM 30.2 °F - 30.2 °F 100% 30.17 in 0.2 mi Calm Calm - N/A Fog Light Freezing Fog
2:35 AM 30.2 °F - 30.2 °F 100% 30.17 in 0.2 mi Calm Calm - N/A Fog Light Freezing Fog
2:55 AM 30.2 °F - 30.2 °F 100% 30.17 in 0.2 mi Calm Calm - N/A Fog Light Freezing Fog
3:15 AM 30.2 °F - 30.2 °F 100% 30.17 in 0.2 mi Calm Calm - N/A Fog Light Freezing Fog
3:35 AM 30.2 °F - 30.2 °F 100% 30.17 in 0.2 mi Calm Calm - N/A Fog Light Freezing Fog
3:55 AM 30.2 °F - 30.2 °F 100% 30.17 in 0.2 mi Calm Calm - N/A Fog Light Freezing Fog
4:15 AM 30.2 °F - 30.2 °F 100% 30.17 in 0.2 mi Calm Calm - N/A Fog Light Freezing Fog
4:35 AM 30.2 °F - 30.2 °F 100% 30.17 in 0.2 mi Calm Calm - N/A Fog Light Freezing Fog
4:55 AM 30.2 °F - 30.2 °F 100% 30.17 in 0.2 mi Calm Calm - N/A Fog Light Freezing Fog
5:15 AM 30.2 °F - 30.2 °F 100% 30.17 in 0.2 mi Calm Calm - N/A Fog Light Freezing Fog
5:35 AM 30.2 °F - 30.2 °F 100% 30.18 in 0.2 mi Calm Calm - N/A Fog Light Freezing Fog
5:55 AM 30.2 °F - 30.2 °F 100% 30.19 in 0.2 mi Calm Calm - N/A Fog Light Freezing Fog
6:15 AM 30.2 °F 26.7 °F 30.2 °F 100% 30.19 in 0.2 mi SSW 3.5 mph - N/A Fog Light Freezing Fog
6:35 AM 30.2 °F - 30.2 °F 100% 30.19 in 0.2 mi Calm Calm - N/A Fog Light Freezing Fog
6:55 AM 30.2 °F 26.7 °F 30.2 °F 100% 30.20 in 0.2 mi SW 3.5 mph - N/A Fog Light Freezing Fog
7:15 AM 30.2 °F - 30.2 °F 100% 30.20 in 0.2 mi Calm Calm - N/A Fog Light Freezing Fog
7:35 AM 32.0 °F - 32.0 °F 100% 30.19 in 0.2 mi Calm Calm - N/A Fog Light Freezing Fog
7:55 AM 32.0 °F 27.5 °F 32.0 °F 100% 30.19 in 0.2 mi SSW 4.6 mph - N/A Fog Light Freezing Fog
8:15 AM 32.0 °F 27.5 °F 32.0 °F 100% 30.19 in 0.2 mi SW 4.6 mph - N/A Fog Light Freezing Fog
8:35 AM 32.0 °F 28.7 °F 32.0 °F 100% 30.19 in 0.2 mi SSW 3.5 mph - N/A Fog Fog
8:55 AM 33.8 °F 30.8 °F 33.8 °F 100% 30.19 in 0.2 mi SW 3.5 mph - N/A Fog Fog
9:15 AM 35.6 °F - 35.6 °F 100% 30.19 in 0.2 mi Calm Calm - N/A Fog Fog
9:35 AM 37.4 °F 33.8 °F 37.4 °F 100% 30.19 in 1.2 mi SSW 4.6 mph - N/A   Overcast
9:55 AM 41.0 °F 37.1 °F 41.0 °F 100% 30.19 in 4.0 mi SW 5.8 mph - N/A   Scattered Clouds
10:15 AM 42.8 °F 38.6 °F 42.8 °F 100% 30.19 in 7.0 mi SSW 6.9 mph - N/A   Clear
10:35 AM 46.4 °F 43.5 °F 46.4 °F 100% 30.18 in 10.0 mi South 5.8 mph - N/A   Clear
10:55 AM 50.0 °F - 42.8 °F 76% 30.18 in 10.0 mi SSW 11.5 mph - N/A   Clear
11:15 AM 51.8 °F - 42.8 °F 71% 30.17 in 10.0 mi SW 12.7 mph 16.1 mph N/A   Clear
11:35 AM 51.8 °F - 42.8 °F 71% 30.16 in 10.0 mi SW 11.5 mph - N/A   Clear
11:55 AM 53.6 °F - 42.8 °F 67% 30.16 in 10.0 mi SSW 11.5 mph - N/A   Clear
12:15 PM 53.6 °F - 42.8 °F 67% 30.15 in 10.0 mi SSW 13.8 mph - N/A   Clear
12:35 PM 53.6 °F - 41.0 °F 62% 30.14 in 10.0 mi SW 15.0 mph - N/A   Clear
12:55 PM 53.6 °F - 41.0 °F 62% 30.13 in 10.0 mi SW 9.2 mph - N/A   Clear
1:15 PM 55.4 °F - 42.8 °F 63% 30.12 in 10.0 mi SSW 11.5 mph - N/A   Clear
1:55 PM 55.4 °F - 42.8 °F 63% 30.11 in 10.0 mi SSW 11.5 mph - N/A   Clear
2:15 PM 55.4 °F - 42.8 °F 63% 30.10 in 10.0 mi SSW 10.4 mph - N/A   Clear
2:35 PM 55.4 °F - 42.8 °F 63% 30.09 in 10.0 mi SSW 10.4 mph 16.1 mph N/A   Clear
2:55 PM 53.6 °F - 42.8 °F 67% 30.09 in 10.0 mi South 11.5 mph - N/A   Clear
3:15 PM 53.6 °F - 42.8 °F 67% 30.09 in 10.0 mi South 8.1 mph - N/A   Clear
3:35 PM 53.6 °F - 42.8 °F 67% 30.09 in 10.0 mi South 10.4 mph 16.1 mph N/A   Clear
3:55 PM 51.8 °F - 42.8 °F 71% 30.08 in 10.0 mi SSW 10.4 mph - N/A   Clear
4:15 PM 50.0 °F - 42.8 °F 76% 30.08 in 10.0 mi South 8.1 mph - N/A   Clear
4:35 PM 48.2 °F - 42.8 °F 82% 30.08 in 10.0 mi South 8.1 mph - N/A   Clear
4:55 PM 46.4 °F 41.1 °F 41.0 °F 81% 30.08 in 10.0 mi South 11.5 mph - N/A   Clear
5:15 PM 46.4 °F 41.9 °F 41.0 °F 81% 30.08 in 10.0 mi SSW 9.2 mph - N/A   Clear
5:35 PM 44.6 °F 39.2 °F 39.2 °F 81% 30.08 in 10.0 mi SSW 10.4 mph - N/A   Clear
5:55 PM 44.6 °F 39.7 °F 41.0 °F 87% 30.09 in 10.0 mi SSW 9.2 mph - N/A   Clear
6:15 PM 42.8 °F 38.6 °F 41.0 °F 93% 30.09 in 7.0 mi SSW 6.9 mph - N/A   Clear
6:35 PM 42.8 °F 38.0 °F 41.0 °F 93% 30.08 in 7.0 mi SSW 8.1 mph - N/A   Clear
6:55 PM 41.0 °F 38.0 °F 39.2 °F 93% 30.08 in 7.0 mi SSW 4.6 mph - N/A   Clear
7:15 PM 41.0 °F 36.4 °F 39.2 °F 93% 30.08 in 5.0 mi SSW 6.9 mph - N/A   Clear
7:35 PM 41.0 °F 36.4 °F 41.0 °F 100% 30.08 in 5.0 mi SSW 6.9 mph - N/A   Clear
7:55 PM 42.8 °F 38.6 °F 41.0 °F 93% 30.07 in 5.0 mi SSW 6.9 mph - N/A   Clear
8:15 PM 42.8 °F 38.0 °F 41.0 °F 93% 30.06 in 5.0 mi SSW 8.1 mph - N/A   Clear
8:35 PM 42.8 °F 38.6 °F 41.0 °F 93% 30.07 in 5.0 mi SSW 6.9 mph - N/A   Clear
8:55 PM 41.0 °F 36.4 °F 39.2 °F 93% 30.07 in 5.0 mi SSW 6.9 mph - N/A   Clear
9:15 PM 41.0 °F 35.8 °F 37.4 °F 87% 30.07 in 5.0 mi SSW 8.1 mph - N/A   Clear
9:35 PM 42.8 °F 36.6 °F 37.4 °F 81% 30.06 in 7.0 mi SSW 11.5 mph - N/A   Clear
9:55 PM 42.8 °F 36.6 °F 37.4 °F 81% 30.05 in 7.0 mi SSW 11.5 mph - N/A   Clear
10:15 PM 42.8 °F 36.6 °F 39.2 °F 87% 30.05 in 7.0 mi SSW 11.5 mph 18.4 mph N/A   Clear
10:35 PM 42.8 °F 36.2 °F 39.2 °F 87% 30.04 in 7.0 mi SSW 12.7 mph 19.6 mph N/A   Clear
10:55 PM 42.8 °F 38.0 °F 39.2 °F 87% 30.04 in 7.0 mi SSW 8.1 mph - N/A   Clear
11:15 PM 42.8 °F 36.6 °F 39.2 °F 87% 30.04 in 7.0 mi SSW 11.5 mph - N/A   Clear
11:35 PM 42.8 °F 36.2 °F 39.2 °F 87% 30.04 in 7.0 mi SSW 12.7 mph - N/A   Clear
11:55 PM 42.8 °F 35.1 °F 39.2 °F 87% 30.03 in 7.0 mi SSW 16.1 mph 19.6 mph N/A   Clear